Regional Weather Roundup
Issued by NWS

Home | Current Version | Previous Version | Text Only | Print | Product List | Glossary Off
Versions: 1 2 3 4 5 6 7 8 9 10 11 12 13 14 15 16 17 18 19 20 21 22 23 24 25 26 27 28 29 30 31 32 33 34 35 36 37 38 39 40 41 42 43 44 45 46 47 48 49 50

000
ASUS43 KFSD 030710
RWRSD

WEATHER ROUNDUP FOR SOUTH DAKOTA
NATIONAL WEATHER SERVICE SIOUX FALLS SD
200 AM CDT FRI JUL 03 2015

NOTE: "FAIR" INDICATES FEW OR NO CLOUDS BELOW 12,000 FEET WITH NO
SIGNIFICANT WEATHER AND/OR OBSTRUCTIONS TO VISIBILITY.


SDZ001>005-009-010-012>017-030800-
NORTHWEST AND NORTH CENTRAL SOUTH DAKOTA

CITY           SKY/WX    TMP DP  RH WIND       PRES   REMARKS
BUFFALO          N/A     65  58  78 W5        30.03R
FAITH            N/A     65  57  75 CALM      30.05S
MOBRIDGE       CLEAR     66  65  96 N5        29.97S FOG
$$

SDZ012>016-024>037-041>051-057-063-072>074-030800-
SOUTHWEST AND SOUTH CENTRAL SOUTH DAKOTA

CITY           SKY/WX    TMP DP  RH WIND       PRES   REMARKS
RAPID CTY ARPT CLEAR     60  57  89 NW6       30.10S
PIERRE         CLEAR     62  61  96 CALM      29.99S FOG
CUSTER         CLEAR     53  49  86 W5        30.22S FOG
ELLSWORTH AFB  MOCLDY    62  59  87 W6        30.09F
PHILIP         CLEAR     62  60  93 W5        30.03S
PINE RIDGE     CLEAR     59  56  89 CALM      30.10S
SPEARFISH      FAIR      59  55  88 SW10      30.14F
WINNER         FAIR      63  58  83 S6        30.02S
$$

SDZ004>011-016>023-039-040-030800-
NORTHEAST SOUTH DAKOTA

CITY           SKY/WX    TMP DP  RH WIND       PRES   REMARKS
ABERDEEN       PTCLDY    62  61  96 SW6       29.97F FOG
WATERTOWN      CLEAR     58  54  86 SW9       29.99F
BROOKINGS      CLEAR     55  52  88 CALM      30.03S
SISSETON         N/A     56  53  90 S3        29.95F
$$

SDZ017-020-022-023-036>040-048>070-030800-
SOUTHEAST SOUTH DAKOTA

CITY           SKY/WX    TMP DP  RH WIND       PRES   REMARKS
SIOUX FALLS    FOG       56  55  97 CALM      30.02R VSB 1/4
HURON          CLEAR     60  58  92 S5        29.99F
CHAMBERLAIN      N/A     61  61 100 CALM      30.00F FOG
MITCHELL       CLEAR     59  57  93 E3        30.01S
YANKTON        MOCLDY    59  57  94 CALM      30.01R
$$

ABBREVIATIONS USED IN REMARKS
   TC - TEMPERATURE IN CELSIUS
  WCI - WIND CHILL INDEX
   HX - HEAT INDEX
  VSB - VISIBILITY




USA.gov is the U.S. government's official web portal to all federal, state and local government web resources and services.